Location: Tamazert
(32.6352°N, 5.2072°W)
Time: 20:22:51
(UTC+00:00)

Vanguard 3 - Pass Details

Date: 05 October 2022
Orbit: 509 x 3255 km, 33.3° (Epoch: 02 December)

Event Time Altitude Azimuth Distance (km) Brightness Sun altitude
Rises 06:55:10 0° 228° (SW) 2,655 9.4 7.0°
Reaches altitude 10° 06:57:32 10° 216° (SW) 1,712 8.6 7.5°
Maximum altitude 07:00:45 29° 154° (SSE) 962 8.2 8.2°
Drops below altitude 10° 07:04:23 10° 92° (E) 1,930 11.5 8.9°
Sets 07:07:13 0° 81° (E) 3,074 11.6 9.5°
